sat.trackr.live / text

‹ back to catalog

STARLINK-2455

NORAD 48117 · 2021-027AB

PAYLOAD ACTIVE UNKNOWN

§ Identity

Operator
Country
US
Launch date
2021-04-07
Launch site
AFETR
Launch vehicle
Mass (kg)
RCS (m²)

Purposes: comms

External: N2YO · Heavens-Above · Gunter

§ Orbital elements

Epoch: 2026-09-15T12:36:59.251392Z

Period
94.01 min
Inclination
53.1600°
Eccentricity
0.0000946
Mean motion
15.31714445 rev/d
Perigee alt
470.0 km
Apogee alt
471.3 km
Semi-major
6,848.8 km
B*
1.2362e-4
RAAN
349.0347°
Arg perigee
81.8089°
Mean anomaly
278.3020°
Rev number
30,177

§ Raw data

STARLINK-24551 48117U 21027AB  26258.52568578  .00003475  00000+0  12362-3 0  99972 48117  53.1600 349.0347 0000946  81.8089 278.3020 15.31714445301776

JSON: /api/v1/satellites/48117 · /tle

For live sub-satellite position, see the globe view (requires WebGL).

§ Visibility from observer

Set your observer location to see the next 7 days of passes ≥ 10°. The values pass through the URL so the page stays shareable.

No JS? Fill the form by hand. The geolocation button needs JavaScript.